User: anonymous   Login
Location: Muenchen
(48.1800°N, 11.5800°E)
Time: 08:53:05
(UTC+02:00)
Language:

Cosmos 2233 Rocket - Orbit

View from above orbital plane
View from above orbital plane
View from above satellite
View from above satellite

Ground track
Ground track

The orbit data is extracted from the following two-line orbital elements,

1 22488U 93008B   16204.85363944  .00000007  00000-0 -86547-5 0  9992
2 22488  82.9443 323.5067 0026628  69.4832  41.5872 13.77698148178915
Epoch (UTC): 22 July 2016 20:29:14
Eccentricity: 0.0026628
inclination: 82.9443°
perigee height: 952 km
apogee height: 991 km
right ascension of ascending node: 323.5067°
argument of perigee: 69.4832°
revolutions per day: 13.77698148
mean anomaly at epoch: 41.5872°
orbit number at epoch: 17891

The dashed part of the orbit path shows where the satellite is in the earth's shadow,  

DLR